Location: Windsor
(43.2292°N, 89.3015°W)
Time: 08:11:13
(UTC+00:00)

DOVE 4 - Visible Passes

Search period start: 27 June 2022 00:00
Search period end: 07 July 2022 00:00
Orbit: 586 x 798 km, 97.8° (Epoch: 24 June)

Date Brightness Start Highest point End Pass type
(mag) Time Alt. Az. Time Alt. Az. Time Alt. Az.
27 Jun ? 04:59:19 10° NNE 05:03:52 37° E 05:04:20 36° ESE visible
27 Jun ? 06:37:11 10° N 06:41:17 28° WNW 06:43:01 23° W visible
28 Jun ? 04:04:32 10° ENE 04:05:29 10° E 04:05:48 10° E visible
28 Jun ? 05:38:41 10° NNE 05:43:37 88° ESE 05:44:29 63° S visible
28 Jun ? 07:18:25 10° NW 07:20:33 13° WNW 07:22:43 10° W visible
29 Jun ? 04:41:25 10° NE 04:45:33 26° E 04:45:56 26° ESE visible
29 Jun ? 06:18:36 10° N 06:23:11 40° WNW 06:24:37 33° WSW visible
30 Jun ? 05:20:28 10° NNE 05:25:24 61° E 05:26:04 55° SE visible
30 Jun ? 06:59:10 10° NNW 07:02:32 19° WNW 07:04:45 14° W visible
01 Jul ? 04:23:46 10° NE 04:27:11 18° E 04:27:31 18° E visible
01 Jul ? 06:00:08 10° N 06:05:02 59° WNW 06:06:12 47° WSW visible
02 Jul ? 05:02:21 10° NNE 05:07:07 41° E 05:07:39 40° ESE visible
02 Jul ? 06:40:21 10° NNW 06:44:28 26° WNW 06:46:19 21° W visible
03 Jul ? 04:06:45 10° ENE 04:08:44 12° E 04:09:05 12° E visible
03 Jul ? 05:41:46 10° NNE 05:46:50 85° WNW 05:47:46 61° SSW visible
03 Jul ? 07:21:42 10° NW 07:23:41 12° WNW 07:25:41 10° W visible
04 Jul ? 04:44:23 10° NE 04:48:47 29° E 04:49:12 28° ESE visible
04 Jul ? 06:21:43 10° N 06:26:22 37° WNW 06:27:52 31° WSW visible
05 Jul ? 05:23:30 10° NNE 05:28:36 67° ESE 05:29:18 59° SE visible
05 Jul ? 07:02:21 10° NNW 07:05:40 18° WNW 07:07:59 14° W visible
06 Jul ? 04:26:38 10° NE 04:30:24 20° E 04:30:44 20° E visible
06 Jul ? 06:03:13 10° N 06:08:12 54° WNW 06:09:24 44° WSW visible
